Location: Barcelona
(41.3829°N, 2.1774°E)
Time: 20:08:57
(UTC+00:00)

ISS - Pass Details

Date: 10 July 2025
Orbit: 413 x 417 km, 51.6° (Epoch: 13 July)

Event Time Altitude Azimuth Distance (km) Brightness Sun altitude
Rises 20:43:37 0° 251° (WSW) 2,341 0.4 -12.3°
Reaches altitude 10° 20:45:46 10° 258° (WSW) 1,482 -0.5 -12.6°
Maximum altitude 20:48:57 42° 331° (NNW) 606 -2.4 -13.0°
Drops below altitude 10° 20:52:09 10° 44° (NE) 1,491 -0.9 -13.4°
Sets 20:54:20 0° 52° (NE) 2,357 0.0 -13.7°
